Location: Newark
(27.9675°N, 86.8869°E)
Time: 09:33:03
(UTC+00:00)

deb Explorer IX - Pass Details

Date: 29 October 2019
Orbit: 546 x 1105 km, 38.8° (Epoch: 14 November)

Event Time Altitude Azimuth Distance (km) Brightness Sun altitude
Rises 10:09:35 0° 291° (WNW) 3,247 ? 16.1°
Reaches altitude 10° 10:12:01 10° 285° (WNW) 2,404 ? 15.6°
Maximum altitude 10:17:25 42° 215° (SW) 1,264 ? 14.5°
Drops below altitude 10° 10:23:38 10° 147° (SSE) 2,760 ? 13.2°
Sets 10:26:36 0° 140° (SE) 3,778 ? 12.6°
